Challis, ID

5:57 PM MDT on August 22, 2017 (GMT -0600)
Challis

Weather History for KLLJ - December, 2013

Change the Weather History Date:

Sunday, December 1, 2013

  Actual Average Record
Temperature  
Mean Temperature 39 °F 22 °F  
Max Temperature 49 °F 31 °F 55 °F (1951)
Min Temperature 29 °F 13 °F -12 °F (1931)
Degree Days  
Heating Degree Days 26 43  
Month to date heating degree days 26 43  
Since 1 July heating degree days 1952 2086  
Cooling Degree Days 0 0  
Month to date cooling degree days 0 0  
Year to date cooling degree days 420 248  
Moisture  
Dew Point 29 °F    
Average Humidity 66    
Maximum Humidity 85    
Minimum Humidity 46    
Precipitation  
Precipitation T in 0.03 in 0.56 in (1917)
Month to date precipitation T 0.03  
Year to date precipitation 4.65 9.35  
Sea Level Pressure  
Sea Level Pressure 30.00 in    
Wind  
Wind Speed 6 mph (SSE)    
Max Wind Speed 22 mph    
Max Gust Speed 27 mph    
Visibility 10 miles    
Events      
T = Trace of Precipitation, MM = Missing Value Source: NWS Daily Summary

Daily Weather History Graph

Daily Weather History Graph

Search for Another Location

Airport or City:

Trip Planner

Search our weather history database for the weather conditions in past years. The results will help you decide how hot, cold, wet, or windy it might be!

Date:

Astronomy

Dec. 01, 2013 Rise Set
Actual Time 7:53 AM MST 4:58 PM MST
Civil Twilight 7:20 AM MST 5:31 PM MST
Nautical Twilight 6:44 AM MST 6:07 PM MST
Astronomical Twilight 6:09 AM MST 6:42 PM MST
Moon 6:13 AM MST (12/1) 4:13 PM MST (12/1)
Length of Visible Light 10h 10m
Length of Day
9h 04m
Waning Crescent, 2% of the Moon is Illuminated
Dec 1
Waning Crescent
Dec 2
New
Dec 9
First Quarter
Dec 17
Full
Dec 25
Last Quarter

Hourly Weather History & Observations

Time (MST) Temp. Windchill Dew Point Humidity Pressure Visibility Wind Dir Wind Speed Gust Speed Precip Events Conditions
12:55 AM 32.0 °F 28.7 °F 25.0 °F 75% 30.24 in 10.0 mi East 3.5 mph - N/A   Overcast
1:55 AM 32.0 °F 28.7 °F 24.1 °F 73% 30.22 in 10.0 mi SSW 3.5 mph - N/A   Overcast
2:55 AM 30.0 °F - 24.1 °F 79% 30.20 in 10.0 mi Calm Calm - N/A   Overcast
3:55 AM 30.0 °F - 25.0 °F 82% 30.17 in 10.0 mi Calm Calm - N/A   Overcast
4:55 AM 30.9 °F - 25.0 °F 79% 30.17 in 10.0 mi Calm Calm - N/A   Overcast
5:55 AM 32.0 °F - 26.1 °F 79% 30.16 in 10.0 mi Calm Calm - N/A   Overcast
6:55 AM 30.9 °F - 25.0 °F 79% 30.14 in 10.0 mi Calm Calm - N/A   Overcast
7:55 AM 30.9 °F - 26.1 °F 82% 30.12 in 10.0 mi Calm Calm - N/A   Overcast
8:55 AM 32.0 °F - 26.1 °F 79% 30.10 in 10.0 mi Calm Calm - N/A   Overcast
9:55 AM 43.0 °F 36.4 °F 28.0 °F 56% 30.04 in - South 12.7 mph - N/A   Overcast
10:55 AM 42.1 °F 34.2 °F 30.0 °F 62% 30.04 in - South 16.1 mph - N/A   Overcast
11:55 AM 44.1 °F 37.7 °F 30.9 °F 60% 29.99 in 10.0 mi South 12.7 mph - N/A   Overcast
12:55 PM 45.0 °F 37.6 °F 30.9 °F 58% 29.95 in - South 17.3 mph - N/A   Overcast
1:55 PM 46.0 °F 40.2 °F 30.9 °F 56% 29.94 in 10.0 mi SSE 12.7 mph - N/A   Overcast
2:55 PM 46.9 °F - 30.9 °F 54% 29.91 in 10.0 mi South 12.7 mph - 0.00 in   Overcast
3:55 PM 48.9 °F - 28.0 °F 44% 29.89 in - Variable 6.9 mph - N/A   Overcast
4:55 PM 48.0 °F - 28.9 °F 48% 29.89 in 10.0 mi Calm Calm - N/A   Overcast
5:55 PM 46.0 °F 43.9 °F 28.9 °F 51% 29.89 in 10.0 mi North 4.6 mph - N/A   Mostly Cloudy
6:55 PM 45.0 °F 43.5 °F 32.0 °F 60% 29.87 in 10.0 mi South 3.5 mph - N/A   Overcast
7:55 PM 45.0 °F 43.5 °F 32.0 °F 60% 29.88 in 10.0 mi Variable 3.5 mph - N/A   Overcast
8:55 PM 44.1 °F - 33.1 °F 65% 29.86 in 10.0 mi Calm Calm - 0.00 in   Mostly Cloudy
9:55 PM 42.1 °F 37.7 °F 32.0 °F 67% 29.80 in 10.0 mi East 6.9 mph - N/A   Scattered Clouds
10:55 PM 44.1 °F 41.5 °F 30.9 °F 60% 29.79 in 10.0 mi Variable 4.6 mph - N/A   Clear
11:55 PM 46.9 °F - 30.9 °F 54% 29.76 in 10.0 mi WSW 13.8 mph - N/A   Overcast